EW7634 Weather Reports


Display with metric or nautical units.
time (UTC)temp
F
wind
direction
speed
MPH
gust
MPH
rain 1hr
in
rain 24hr
in
rain mn
in
humidity
%
barometer
mb
20200330225008 31 67 0.0 0.0 0.00 0.00 0.00 64 1030.2
20200330224502 30 67 0.0 0.0 0.00 0.00 0.00 64 1030.1
20200330224004 31 67 0.0 0.0 0.00 0.00 0.00 64 1030.1
20200330223130 31 67 0.0 0.0 0.00 0.00 0.00 61 1030.1
20200330222632 31 67 0.0 0.0 0.00 0.00 0.00 60 1030.0
20200330222057 32 67 0.0 0.0 0.00 0.00 0.00 59 1030.0
20200330221649 32 67 0.0 0.0 0.00 0.00 0.00 58 1030.0
20200330221103 32 67 0.0 0.0 0.00 0.00 0.00 56 1030.0
20200330220555 32 67 0.0 0.0 0.00 0.00 0.00 55 1029.9
20200330220056 32 67 0.0 0.0 0.00 0.00 0.00 56 1029.9
20200330215553 32 67 0.0 0.0 0.00 0.00 0.00 56 1029.9
20200330215053 32 67 0.0 0.0 0.00 0.00 0.00 56 1029.8
20200330214818 32 67 0.0 0.0 0.00 0.00 0.00 56 1029.8
20200330214102 33 67 0.0 0.0 0.00 0.00 0.00 55 1029.8
20200330213556 33 67 0.0 0.0 0.00 0.00 0.00 55 1029.8
20200330213129 32 67 0.0 0.0 0.00 0.00 0.00 55 1029.8
20200330212553 33 67 0.0 0.0 0.00 0.00 0.00 54 1029.8
20200330212051 33 67 0.0 0.0 0.00 0.00 0.00 54 1029.7
20200330211649 33 67 0.0 0.0 0.00 0.00 0.00 53 1029.7
20200330211051 33 67 0.0 0.0 0.00 0.00 0.00 53 1029.6
20200330210551 33 68 0.0 0.0 0.00 0.00 0.00 53 1029.7
20200330210210 33 68 0.0 0.0 0.00 0.00 0.00 53 1029.6
20200330205609 33 76 0.0 0.0 0.00 0.00 0.00 53 1029.6
20200330205155 33 76 0.0 0.0 0.00 0.00 0.00 53 1029.5
20200330204723 33 54 0.0 2.0 0.00 0.00 0.00 52 1029.5
20200330204053 33 54 0.0 2.0 0.00 0.00 0.00 51 1029.4
20200330203555 33 54 0.0 2.0 0.00 0.00 0.00 51 1029.4
20200330203128 34 51 0.0 2.0 0.00 0.00 0.00 50 1029.3
20200330202547 34 55 0.0 0.0 0.00 0.00 0.00 50 1029.3
20200330202046 34 51 0.0 0.0 0.00 0.00 0.00 50 1029.2
20200330201645 34 68 0.0 0.0 0.00 0.00 0.00 50 1029.2
20200330201052 34 72 0.0 0.0 0.00 0.00 0.00 49 1029.1
20200330200544 33 91 0.0 0.0 0.00 0.00 0.00 51 1029.0
20200330200126 33 63 0.0 0.0 0.00 0.00 0.00 50 1028.9
20200330195543 34 63 0.0 0.0 0.00 0.00 0.00 49 1028.9
20200330195048 34 65 0.0 0.0 0.00 0.00 0.00 49 1028.8
20200330194636 34 65 0.0 0.0 0.00 0.00 0.00 48 1028.6
20200330194052 34 65 0.0 0.0 0.00 0.00 0.00 46 1028.6
20200330193541 35 65 0.0 0.0 0.00 0.00 0.00 47 1028.5
20200330193141 35 65 0.0 0.0 0.00 0.00 0.00 45 1028.4
20200330192605 35 65 0.0 0.0 0.00 0.00 0.00 45 1028.4
20200330192038 35 65 0.0 0.0 0.00 0.00 0.00 46 1028.3
20200330191543 35 65 0.0 0.0 0.00 0.00 0.00 46 1028.3
20200330191037 35 65 0.0 0.0 0.00 0.00 0.00 46 1028.3
20200330190536 36 65 0.0 0.0 0.00 0.00 0.00 47 1028.2
20200330190101 36 65 0.0 0.0 0.00 0.00 0.00 47 1028.1
20200330185543 36 65 0.0 0.0 0.00 0.00 0.00 46 1027.9
20200330185051 36 65 0.0 0.0 0.00 0.00 0.00 46 1027.8
20200330184536 37 78 0.0 3.0 0.00 0.00 0.00 45 1027.7
20200330184035 37 84 0.0 3.0 0.00 0.00 0.00 47 1027.6
20200330183535 37 64 0.0 1.0 0.00 0.00 0.00 48 1027.5
20200330183041 37 53 0.0 2.0 0.00 0.00 0.00 49 1027.5
20200330182534 38 38 0.0 5.0 0.00 0.00 0.00 50 1027.4
20200330182054 38 350 0.0 5.0 0.00 0.00 0.00 51 1027.3
20200330181619 38 5 0.0 5.0 0.00 0.00 0.00 52 1027.2
20200330181034 38 5 0.0 5.0 0.00 0.00 0.00 50 1027.0
20200330180533 38 5 0.0 5.0 0.00 0.00 0.00 50 1026.9
20200330180132 39 11 0.0 5.0 0.00 0.00 0.00 51 1026.9
20200330175534 39 360 0.0 6.0 0.00 0.00 0.00 50 1026.8
20200330175053 39 10 0.0 6.0 0.00 0.00 0.00 48 1026.8
20200330174626 39 9 1.0 6.0 0.00 0.00 0.00 47 1026.7
20200330174034 40 338 1.0 9.0 0.00 0.00 0.00 46 1026.6
20200330173535 40 360 0.0 9.0 0.00 0.00 0.00 46 1026.5
20200330173054 40 349 1.0 10.0 0.00 0.00 0.00 44 1026.4
20200330172604 40 5 1.0 10.0 0.00 0.00 0.00 44 1026.4
20200330172051 40 360 1.0 9.0 0.00 0.00 0.00 42 1026.3
20200330171557 40 19 0.0 9.0 0.00 0.00 0.00 47 1026.2
20200330171032 40 14 1.0 10.0 0.00 0.00 0.00 44 1026.1
20200330170534 40 349 1.0 11.0 0.00 0.00 0.00 46 1026.1
20200330170034 40 349 2.0 11.0 0.00 0.00 0.00 42 1026.0
20200330165531 41 18 3.0 12.0 0.00 0.00 0.00 44 1026.0
20200330165032 41 351 0.0 12.0 0.00 0.00 0.00 48 1026.0
20200330164552 41 360 3.0 11.0 0.00 0.00 0.00 46 1025.9
20200330164034 41 9 1.0 10.0 0.00 0.00 0.00 50 1025.9
20200330163535 41 360 1.0 12.0 0.00 0.00 0.00 47 1025.8
20200330163127 41 355 3.0 12.0 0.00 0.00 0.00 43 1025.8
20200330162542 41 341 6.0 12.0 0.00 0.00 0.00 43 1025.7
20200330162043 41 350 2.0 12.0 0.00 0.00 0.00 39 1025.6
20200330161647 41 347 4.0 12.0 0.00 0.00 0.00 41 1025.6
20200330161030 42 360 3.0 12.0 0.00 0.00 0.00 44 1025.6
20200330160531 42 355 2.0 11.0 0.00 0.00 0.00 44 1025.6
20200330160045 42 20 3.0 15.0 0.00 0.00 0.00 46 1025.4
20200330155531 42 346 5.0 15.0 0.00 0.00 0.00 44 1025.5
20200330155029 42 345 1.0 11.0 0.00 0.00 0.00 45 1025.4
20200330154552 42 12 2.0 14.0 0.00 0.00 0.00 45 1025.4
20200330154032 42 5 4.0 15.0 0.00 0.00 0.00 44 1025.3
20200330153533 42 14 4.0 15.0 0.00 0.00 0.00 43 1025.2
20200330153051 42 5 4.0 13.0 0.00 0.00 0.00 44 1025.2
20200330152529 42 10 6.0 13.0 0.00 0.00 0.00 44 1025.2
20200330152027 42 330 4.0 13.0 0.00 0.00 0.00 48 1025.2
20200330151553 42 360 5.0 13.0 0.00 0.00 0.00 46 1025.2
20200330151028 42 9 2.0 12.0 0.00 0.00 0.00 46 1025.1
20200330150528 42 13 2.0 13.0 0.00 0.00 0.00 48 1025.2
20200330150040 42 5 5.0 14.0 0.00 0.00 0.00 46 1025.2
20200330145532 42 5 6.0 14.0 0.00 0.00 0.00 49 1025.2
20200330145032 42 18 4.0 13.0 0.00 0.00 0.00 48 1025.2
20200330144537 42 5 6.0 14.0 0.00 0.00 0.00 49 1025.1
20200330144036 42 13 5.0 14.0 0.00 0.00 0.00 50 1025.1
20200330143526 42 360 5.0 13.0 0.00 0.00 0.00 48 1025.1
20200330143029 42 19 2.0 13.0 0.00 0.00 0.00 50 1025.1
20200330142526 42 360 6.0 13.0 0.00 0.00 0.00 48 1025.1
20200330142035 42 360 2.0 13.0 0.00 0.00 0.00 53 1025.1
20200330141607 42 5 5.0 13.0 0.00 0.00 0.00 52 1025.1
20200330141025 42 360 2.0 13.0 0.00 0.00 0.00 53 1025.1
20200330140552 42 9 6.0 13.0 0.00 0.00 0.00 53 1025.2
20200330140039 42 350 5.0 13.0 0.00 0.00 0.00 53 1025.2
20200330135540 42 349 4.0 13.0 0.00 0.00 0.00 54 1025.1
20200330135034 42 11 1.0 13.0 0.00 0.00 0.00 55 1025.2
20200330134531 42 15 5.0 13.0 0.00 0.00 0.00 54 1025.1
20200330134025 42 343 6.0 13.0 0.00 0.00 0.00 57 1025.0
20200330133527 42 350 7.0 13.0 0.00 0.00 0.00 54 1025.0
20200330133115 42 344 5.0 13.0 0.00 0.00 0.00 55 1025.0
20200330132522 42 360 5.0 14.0 0.00 0.00 0.00 58 1024.9
20200330132021 42 5 6.0 14.0 0.00 0.00 0.00 59 1024.8
20200330131521 41 360 6.0 15.0 0.00 0.00 0.00 59 1024.9
20200330131036 42 348 5.0 15.0 0.00 0.00 0.00 59 1024.9
20200330130530 42 350 6.0 13.0 0.00 0.00 0.00 62 1024.9
20200330130023 41 360 6.0 13.0 0.00 0.00 0.00 59 1024.9
20200330125521 41 355 6.0 13.0 0.00 0.00 0.00 60 1024.8
20200330125020 42 346 6.0 14.0 0.00 0.00 0.00 62 1024.9
20200330124548 42 5 4.0 14.0 0.00 0.00 0.00 62 1024.9
20200330124021 41 360 4.0 14.0 0.00 0.00 0.00 62 1024.8
20200330123521 42 5 5.0 14.0 0.00 0.00 0.00 61 1024.7
20200330123049 42 10 5.0 15.0 0.00 0.00 0.00 60 1024.8
20200330122524 41 340 7.0 15.0 0.00 0.00 0.00 61 1024.7
20200330122024 41 355 5.0 14.0 0.00 0.00 0.00 60 1024.8
20200330121536 41 355 4.0 14.0 0.00 0.00 0.00 60 1024.7
20200330121026 42 5 6.0 13.0 0.00 0.00 0.00 61 1024.7
20200330120519 42 333 3.0 13.0 0.00 0.00 0.00 64 1024.7
20200330120031 42 360 6.0 13.0 0.00 0.00 0.00 62 1024.7
20200330115519 42 347 4.0 12.0 0.00 0.00 0.00 63 1024.6
20200330115020 42 17 6.0 13.0 0.00 0.00 0.00 64 1024.6
20200330114520 42 360 4.0 14.0 0.00 0.00 0.00 64 1024.5
20200330114019 42 5 6.0 14.0 0.00 0.00 0.00 63 1024.4
20200330113518 42 10 5.0 13.0 0.00 0.00 0.00 64 1024.5
20200330113033 42 5 5.0 14.0 0.00 0.00 0.00 65 1024.6
20200330112519 42 344 3.0 14.0 0.00 0.00 0.00 63 1024.4
20200330112030 42 9 2.0 11.0 0.00 0.00 0.00 65 1024.4
20200330111519 42 336 3.0 16.0 0.00 0.00 0.00 64 1024.3
20200330111017 42 350 4.0 16.0 0.00 0.00 0.00 62 1024.3
20200330110521 42 24 3.0 11.0 0.00 0.00 0.00 65 1024.3
20200330110025 42 329 4.0 11.0 0.00 0.00 0.00 66 1024.3
20200330105517 42 23 3.0 11.0 0.00 0.00 0.00 64 1024.2
20200330105035 42 355 3.0 11.0 0.00 0.00 0.00 64 1024.2
20200330104521 43 9 2.0 10.0 0.00 0.00 0.00 65 1024.2
20200330104016 42 5 2.0 13.0 0.00 0.00 0.00 65 1024.2
20200330103516 42 349 4.0 13.0 0.00 0.00 0.00 64 1024.1
20200330103044 42 351 2.0 11.0 0.00 0.00 0.00 64 1024.1
20200330102522 42 19 3.0 11.0 0.00 0.00 0.00 63 1024.1
20200330102019 42 11 1.0 11.0 0.00 0.00 0.00 63 1024.1
20200330101514 42 360 2.0 10.0 0.00 0.00 0.00 62 1024.1
20200330101017 42 360 1.0 10.0 0.00 0.00 0.00 65 1024.1
20200330100515 43 350 1.0 11.0 0.00 0.00 0.00 66 1024.1
20200330100026 42 344 3.0 11.0 0.00 0.00 0.00 64 1024.2
20200330095518 43 348 3.0 11.0 0.00 0.00 0.00 64 1024.1
20200330095012 42 18 0.0 11.0 0.00 0.00 0.00 65 1024.2
20200330094519 43 5 2.0 8.0 0.00 0.00 0.00 65 1024.1
20200330094010 43 360 0.0 10.0 0.00 0.00 0.00 66 1024.1
20200330093510 42 355 1.0 11.0 0.00 0.00 0.00 64 1024.0
20200330093015 42 5 3.0 11.0 0.00 0.00 0.00 64 1024.0
20200330092509 42 360 2.0 9.0 0.00 0.00 0.00 64 1024.0
20200330092009 43 344 0.0 8.0 0.00 0.00 0.00 65 1024.0
20200330091508 42 42 0.0 9.0 0.00 0.00 0.00 65 1023.9
20200330091007 43 360 1.0 9.0 0.00 0.00 0.00 68 1023.9
20200330090504 43 341 1.0 9.0 0.00 0.00 0.00 66 1023.8
20200330090006 42 29 0.0 10.0 0.00 0.00 0.00 67 1023.8
20200330085506 42 355 0.0 9.0 0.00 0.00 0.00 69 1023.8
20200330085006 42 5 1.0 9.0 0.00 0.00 0.00 69 1023.8
20200330084503 42 5 0.0 9.0 0.00 0.00 0.00 69 1023.7
20200330084007 42 27 0.0 10.0 0.00 0.00 0.00 70 1023.7
20200330083501 42 355 0.0 10.0 0.00 0.00 0.00 72 1023.7
20200330083311 42 341 1.0 10.0 0.00 0.00 0.00 71 1023.6
20200330083121 42 355 2.0 10.0 0.00 0.00 0.00 71 1023.6
20200330082604 42 5 1.0 11.0 0.00 0.00 0.00 70 1023.6
20200330082059 42 355 2.0 11.0 0.00 0.00 0.00 72 1023.5
20200330081712 42 360 0.0 6.0 0.00 0.00 0.00 70 1023.4
20200330081059 41 344 0.0 9.0 0.00 0.00 0.00 68 1023.3
20200330080559 42 323 0.0 10.0 0.00 0.00 0.00 71 1023.3
20200330080301 42 331 1.0 9.0 0.00 0.00 0.00 71 1023.2
20200330075556 41 318 0.0 9.0 0.00 0.00 0.00 71 1023.2
20200330075104 41 349 0.0 8.0 0.00 0.00 0.00 74 1023.2
20200330074838 40 327 0.0 10.0 0.00 0.00 0.00 76 1023.1
20200330074055 41 338 0.0 10.0 0.00 0.00 0.00 75 1023.1
20200330073631 41 340 0.0 6.0 0.00 0.00 0.00 77 1023.0
20200330073135 41 334 0.0 4.0 0.00 0.00 0.00 78 1023.1
20200330072554 41 5 0.0 8.0 0.00 0.00 0.00 79 1023.0
20200330072053 40 351 0.0 8.0 0.00 0.00 0.00 79 1023.0
20200330071622 40 331 0.0 6.0 0.00 0.00 0.00 80 1023.0
20200330071058 40 341 0.0 5.0 0.00 0.00 0.00 80 1023.0
20200330070609 41 342 0.0 5.0 0.00 0.00 0.00 80 1022.9
20200330070212 41 343 0.0 3.0 0.00 0.00 0.00 80 1022.9
20200330065552 41 338 0.0 1.0 0.00 0.00 0.00 82 1022.8
20200330065051 41 334 0.0 1.0 0.00 0.00 0.00 83 1022.9
20200330064606 40 330 0.0 1.0 0.00 0.00 0.00 84 1022.9
20200330064051 40 313 0.0 2.0 0.00 0.00 0.00 83 1022.9
20200330063550 40 314 0.0 2.0 0.00 0.00 0.00 84 1022.9
20200330063100 40 322 0.0 3.0 0.00 0.00 0.00 85 1022.8
20200330062608 40 315 0.0 3.0 0.00 0.00 0.00 86 1022.8
20200330062046 39 327 0.0 4.0 0.00 0.00 0.00 87 1022.7
20200330061623 39 334 0.0 4.0 0.00 0.00 0.00 87 1022.7
20200330061105 38 316 0.0 2.0 0.00 0.00 0.00 88 1022.7
20200330060543 38 315 0.0 2.0 0.00 0.00 0.00 89 1022.7
20200330060208 38 321 0.0 2.0 0.00 0.00 0.00 89 1022.8
20200330055547 38 323 0.0 0.0 0.00 0.00 0.00 89 1022.8
20200330055049 38 287 0.0 0.0 0.00 0.00 0.00 90 1022.8
20200330054835 37 300 0.0 2.0 0.00 0.00 0.00 90 1022.8
20200330054042 37 297 0.0 2.0 0.00 0.00 0.00 90 1022.8
20200330053555 37 296 0.0 3.0 0.00 0.00 0.00 89 1022.7
20200330053148 37 287 0.0 3.0 0.00 0.00 0.00 89 1022.7
20200330052551 37 301 0.0 2.0 0.00 0.00 0.00 89 1022.7
20200330052101 36 296 0.0 2.0 0.00 0.00 0.00 89 1022.7
20200330051754 36 312 0.0 3.0 0.00 0.00 0.00 89 1022.8
20200330051038 35 294 0.0 1.0 0.00 0.00 0.00 89 1022.7
20200330050538 35 291 0.0 0.0 0.00 0.00 0.00 88 1022.7
20200330050248 36 300 0.0 2.0 0.00 0.00 0.00 88 1022.8
20200330045546 36 300 0.0 2.0 0.00 0.00 0.00 88 1022.8
20200330045040 35 288 0.0 1.0 0.00 0.00 0.00 88 1022.9
20200330044604 36 298 0.0 0.0 0.00 0.00 0.00 87 1022.9
20200330044038 36 294 0.0 3.0 0.00 0.00 0.00 87 1022.9
20200330043536 36 286 0.0 2.0 0.00 0.00 0.00 87 1022.9
20200330043053 36 290 0.0 0.0 0.00 0.00 0.00 87 1023.0
20200330042534 37 297 0.0 1.0 0.00 0.00 0.00 86 1023.0
20200330042030 37 308 0.0 1.0 0.00 0.00 0.00 86 1023.0
20200330041536 37 291 0.0 1.0 0.00 0.00 0.00 86 1023.0
20200330041039 37 288 0.0 5.0 0.00 0.00 0.00 86 1023.1
20200330040529 37 302 0.0 8.0 0.00 0.00 0.00 87 1023.2
20200330040058 37 306 0.0 8.0 0.00 0.00 0.00 87 1023.3
20200330035528 37 294 0.0 0.0 0.00 0.02 0.00 87 1023.4
20200330035028 37 291 0.0 0.0 0.00 0.02 0.00 87 1023.4
20200330034545 37 286 0.0 1.0 0.00 0.02 0.00 87 1023.3
20200330034041 37 281 0.0 1.0 0.00 0.02 0.00 87 1023.4
20200330033540 37 287 0.0 4.0 0.00 0.02 0.00 87 1023.3
20200330033120 37 286 0.0 4.0 0.00 0.02 0.00 87 1023.4
20200330032534 36 284 0.0 3.0 0.00 0.02 0.00 86 1023.5
20200330032026 36 258 0.0 2.0 0.00 0.02 0.00 86 1023.4
20200330031619 36 291 0.0 2.0 0.00 0.02 0.00 86 1023.4
20200330031040 36 270 0.0 0.0 0.00 0.02 0.00 86 1023.5
20200330030534 36 248 0.0 1.0 0.00 0.02 0.00 85 1023.7
20200330030041 36 283 0.0 1.0 0.00 0.02 0.00 85 1023.8
20200330025523 36 281 0.0 3.0 0.00 0.02 0.00 85 1023.9
20200330025034 36 284 0.0 3.0 0.00 0.02 0.00 85 1023.9
20200330024536 36 278 0.0 3.0 0.00 0.02 0.00 85 1023.9
20200330024025 36 291 0.0 0.0 0.00 0.02 0.00 84 1023.9
20200330023520 36 273 0.0 2.0 0.00 0.02 0.00 84 1023.9
20200330023055 37 279 0.0 2.0 0.00 0.02 0.00 84 1024.0
20200330022525 37 273 0.0 2.0 0.00 0.02 0.00 84 1024.0
20200330022026 37 289 0.0 2.0 0.00 0.02 0.00 84 1024.1
20200330021534 37 287 0.0 3.0 0.00 0.02 0.00 84 1024.2
20200330021026 37 283 0.0 5.0 0.00 0.02 0.00 84 1024.3
20200330020540 37 291 0.0 5.0 0.00 0.02 0.00 84 1024.3
20200330020048 37 285 0.0 5.0 0.00 0.02 0.00 83 1024.4
20200330015517 37 280 0.0 5.0 0.00 0.02 0.00 83 1024.5
20200330015015 37 292 0.0 5.0 0.00 0.02 0.00 82 1024.6
20200330014534 37 289 0.0 4.0 0.00 0.02 0.00 81 1024.7
20200330014013 37 284 0.0 4.0 0.00 0.02 0.00 81 1024.8
20200330013512 37 302 0.0 7.0 0.00 0.02 0.00 81 1025.0
20200330013020 37 295 0.0 8.0 0.00 0.02 0.00 81 1025.1
20200330012512 37 285 0.0 4.0 0.00 0.02 0.00 81 1025.0
20200330012010 37 278 0.0 3.0 0.00 0.02 0.00 80 1025.1
20200330011511 37 278 0.0 5.0 0.00 0.02 0.00 80 1025.2
20200330011015 38 281 0.0 9.0 0.00 0.02 0.00 80 1025.2
20200330010514 38 299 0.0 9.0 0.00 0.02 0.00 79 1025.2
20200330010033 38 302 1.0 9.0 0.00 0.02 0.00 79 1025.3
20200330005520 38 284 0.0 9.0 0.00 0.03 0.00 79 1025.3
20200330005007 38 294 0.0 8.0 0.00 0.03 0.00 79 1025.4
20200330004518 38 299 0.0 9.0 0.00 0.03 0.00 79 1025.5
20200330004009 38 275 0.0 9.0 0.00 0.03 0.00 79 1025.5
20200330003505 38 292 1.0 11.0 0.00 0.03 0.00 78 1025.6
20200330003008 38 292 3.0 11.0 0.00 0.03 0.00 78 1025.8
20200330002515 38 283 1.0 9.0 0.00 0.03 0.00 78 1025.8
20200330002004 38 300 1.0 9.0 0.00 0.03 0.00 78 1026.0
20200330001504 38 296 2.0 11.0 0.00 0.03 0.00 78 1026.0
20200330001100 37 286 0.0 11.0 0.00 0.03 0.00 78 1026.1
20200330000600 37 306 0.0 6.0 0.00 0.03 0.00 78 1026.2
20200330000215 37 306 0.0 9.0 0.00 0.03 0.00 78 1026.3
20200329235613 37 303 0.0 8.0 0.00 0.03 0.00 79 1026.4
20200329235057 37 289 0.0 7.0 0.00 0.03 0.00 79 1026.4
20200329234638 37 291 1.0 7.0 0.00 0.03 0.00 80 1026.5
20200329234116 36 283 0.0 7.0 0.00 0.03 0.00 80 1026.6
20200329233613 36 283 0.0 7.0 0.00 0.03 0.00 81 1026.7
20200329233110 35 293 0.0 3.0 0.00 0.03 0.00 82 1026.8
20200329232551 34 253 0.0 0.0 0.00 0.03 0.00 82 1026.9
20200329232111 33 252 0.0 0.0 0.00 0.03 0.00 81 1027.0
20200329231641 32 250 0.0 0.0 0.00 0.03 0.00 80 1027.0
20200329231048 32 250 0.0 0.0 0.00 0.03 0.00 79 1027.0
20200329230547 32 249 0.0 0.0 0.00 0.03 0.00 79 1027.1
20200329230127 32 250 0.0 0.0 0.00 0.03 0.00 78 1027.2
20200329225545 33 252 0.0 1.0 0.00 0.03 0.00 77 1027.3